TimeEST,TemperatureF,Dew PointF,Humidity,Sea Level PressureIn,VisibilityMPH,Wind Direction,Wind SpeedMPH,Gust SpeedMPH,PrecipitationIn,Events,Conditions,WindDirDegrees,DateUTC
12:15 AM,34.2,28.4,79,29.94,10.0,West,16.1,19.6,N/A,,Overcast,260,2013-01-17 05:15:00
12:35 AM,34.3,28.4,79,29.96,10.0,West,9.2,-,N/A,,Overcast,270,2013-01-17 05:35:00
12:54 AM,34.3,28.4,79,29.97,10.0,West,12.7,-,N/A,,Overcast,270,2013-01-17 05:54:00
1:15 AM,34.2,28.2,79,29.97,10.0,West,9.2,-,N/A,,Overcast,270,2013-01-17 06:15:00
1:34 AM,34.0,28.0,79,29.99,10.0,West,9.2,-,N/A,,Overcast,280,2013-01-17 06:34:00
1:55 AM,33.8,27.5,78,29.99,10.0,West,10.4,-,N/A,,Overcast,270,2013-01-17 06:55:00
2:14 AM,33.8,27.3,77,29.99,10.0,West,6.9,-,N/A,,Overcast,270,2013-01-17 07:14:00
2:35 AM,33.3,27.3,79,30.01,10.0,West,6.9,-,N/A,,Overcast,260,2013-01-17 07:35:00
2:55 AM,32.2,26.8,80,30.01,10.0,WSW,4.6,-,N/A,,Overcast,240,2013-01-17 07:55:00
3:14 AM,31.6,26.2,80,30.01,10.0,West,4.6,-,N/A,,Scattered Clouds,260,2013-01-17 08:14:00
3:35 AM,31.1,26.4,83,30.02,10.0,WSW,4.6,-,N/A,,Mostly Cloudy,250,2013-01-17 08:35:00
4:35 AM,31.6,24.4,75,30.04,10.0,NNW,4.6,-,N/A,,Overcast,340,2013-01-17 09:35:00
4:55 AM,31.1,24.3,76,30.06,10.0,NNW,4.6,-,N/A,,Overcast,330,2013-01-17 09:55:00
5:15 AM,31.1,23.0,72,30.08,10.0,NNW,4.6,-,N/A,,Overcast,340,2013-01-17 10:15:00
5:35 AM,30.7,22.5,71,30.09,10.0,NNW,3.5,-,N/A,,Overcast,340,2013-01-17 10:35:00
5:55 AM,30.7,23.0,73,30.10,10.0,Calm,Calm,-,N/A,,Overcast,0,2013-01-17 10:55:00
6:15 AM,30.2,21.9,71,30.10,10.0,Calm,Calm,-,N/A,,Overcast,0,2013-01-17 11:15:00
6:35 AM,30.0,21.9,72,30.11,10.0,Calm,Calm,-,N/A,,Overcast,0,2013-01-17 11:35:00
6:54 AM,29.7,21.7,72,30.11,10.0,Calm,Calm,-,N/A,,Overcast,0,2013-01-17 11:54:00
7:15 AM,29.3,21.2,72,30.12,10.0,Calm,Calm,-,N/A,,Overcast,0,2013-01-17 12:15:00
7:34 AM,29.3,20.8,71,30.13,10.0,Calm,Calm,-,N/A,,Overcast,0,2013-01-17 12:34:00
7:55 AM,29.1,20.8,71,30.14,10.0,Calm,Calm,-,N/A,,Overcast,0,2013-01-17 12:55:00
8:14 AM,29.1,21.0,72,30.14,10.0,Calm,Calm,-,N/A,,Overcast,0,2013-01-17 13:14:00
8:35 AM,29.1,21.2,72,30.15,10.0,NW,3.5,-,N/A,,Overcast,320,2013-01-17 13:35:00
8:55 AM,29.3,20.7,70,30.16,10.0,NW,3.5,-,N/A,,Overcast,310,2013-01-17 13:55:00
9:14 AM,29.1,19.0,66,30.17,10.0,NW,3.5,-,N/A,,Overcast,310,2013-01-17 14:14:00
9:35 AM,29.8,18.7,63,30.18,10.0,WNW,4.6,-,N/A,,Overcast,300,2013-01-17 14:35:00
9:55 AM,30.4,18.5,61,30.18,10.0,NW,5.8,-,N/A,,Overcast,310,2013-01-17 14:55:00
10:15 AM,30.7,17.4,58,30.18,10.0,WNW,5.8,-,N/A,,Mostly Cloudy,300,2013-01-17 15:15:00
10:35 AM,31.8,18.0,57,30.17,10.0,WNW,4.6,-,N/A,,Scattered Clouds,290,2013-01-17 15:35:00
10:55 AM,32.0,16.5,53,30.17,10.0,West,5.8,-,N/A,,Clear,280,2013-01-17 15:55:00
11:15 AM,32.0,16.2,52,30.17,10.0,West,6.9,-,N/A,,Mostly Cloudy,280,2013-01-17 16:15:00
11:35 AM,32.0,17.4,55,30.17,10.0,West,17.3,23.0,N/A,,Overcast,270,2013-01-17 16:35:00
11:55 AM,32.0,17.8,56,30.16,10.0,West,12.7,-,N/A,,Overcast,280,2013-01-17 16:55:00
12:15 PM,32.0,19.2,59,30.15,10.0,WNW,12.7,-,N/A,,Overcast,290,2013-01-17 17:15:00
12:35 PM,32.0,19.2,59,30.14,10.0,West,12.7,21.9,N/A,,Overcast,280,2013-01-17 17:35:00
12:54 PM,31.6,18.5,58,30.14,10.0,West,15.0,21.9,N/A,,Overcast,280,2013-01-17 17:54:00
1:15 PM,32.0,19.0,59,30.14,10.0,WNW,15.0,19.6,N/A,,Mostly Cloudy,290,2013-01-17 18:15:00
1:34 PM,31.5,17.2,56,30.13,10.0,West,11.5,20.7,N/A,,Mostly Cloudy,280,2013-01-17 18:34:00
1:55 PM,32.0,19.0,59,30.13,10.0,WNW,16.1,19.6,N/A,,Scattered Clouds,300,2013-01-17 18:55:00
2:15 PM,31.5,18.7,59,30.13,10.0,WNW,15.0,-,N/A,,Scattered Clouds,300,2013-01-17 19:15:00
2:34 PM,31.1,19.0,61,30.13,10.0,WNW,15.0,-,N/A,,Overcast,300,2013-01-17 19:34:00
2:55 PM,30.6,18.7,61,30.14,10.0,West,16.1,23.0,N/A,,Mostly Cloudy,280,2013-01-17 19:55:00
3:15 PM,30.6,18.3,60,30.14,10.0,WNW,12.7,21.9,N/A,,Mostly Cloudy,290,2013-01-17 20:15:00
3:35 PM,30.2,18.0,60,30.14,10.0,WNW,12.7,21.9,N/A,,Mostly Cloudy,290,2013-01-17 20:35:00
3:55 PM,29.7,18.0,62,30.14,10.0,WNW,12.7,18.4,N/A,,Overcast,290,2013-01-17 20:55:00
4:14 PM,28.6,17.4,63,30.14,10.0,WNW,16.1,19.6,N/A,,Overcast,300,2013-01-17 21:14:00
4:35 PM,27.5,17.8,67,30.16,10.0,WNW,17.3,24.2,N/A,,Mostly Cloudy,290,2013-01-17 21:35:00
4:55 PM,27.1,16.9,65,30.17,10.0,WNW,15.0,20.7,N/A,,Mostly Cloudy,300,2013-01-17 21:55:00
5:15 PM,26.8,16.2,64,30.18,10.0,West,16.1,23.0,N/A,,Overcast,280,2013-01-17 22:15:00
5:35 PM,25.9,14.0,61,30.20,10.0,WNW,17.3,24.2,N/A,,Overcast,290,2013-01-17 22:35:00
5:55 PM,25.5,14.9,64,30.21,10.0,WNW,15.0,21.9,N/A,,Overcast,300,2013-01-17 22:55:00
6:15 PM,24.3,14.5,67,30.23,10.0,WNW,16.1,20.7,N/A,,Overcast,300,2013-01-17 23:15:00
6:35 PM,23.4,14.5,69,30.24,10.0,WNW,15.0,19.6,N/A,,Mostly Cloudy,300,2013-01-17 23:35:00
6:55 PM,23.0,10.4,59,30.25,10.0,WNW,16.1,23.0,N/A,,Overcast,300,2013-01-17 23:55:00
7:15 PM,22.1,7.5,54,30.26,10.0,WNW,12.7,19.6,N/A,,Overcast,300,2013-01-18 00:15:00
7:35 PM,21.6,5.9,51,30.27,10.0,NW,12.7,18.4,N/A,,Overcast,320,2013-01-18 00:35:00
7:54 PM,21.6,6.1,51,30.29,10.0,NW,10.4,-,N/A,,Overcast,310,2013-01-18 00:54:00
8:15 PM,21.2,9.0,59,30.29,10.0,WNW,8.1,-,N/A,,Overcast,300,2013-01-18 01:15:00
8:35 PM,21.2,7.5,56,30.29,10.0,NW,13.8,18.4,N/A,,Overcast,310,2013-01-18 01:35:00
8:55 PM,21.0,7.9,57,30.29,10.0,NNW,6.9,-,N/A,,Overcast,330,2013-01-18 01:55:00
9:15 PM,20.7,7.7,57,30.30,10.0,NW,6.9,-,N/A,,Overcast,310,2013-01-18 02:15:00
9:55 PM,20.3,7.0,56,30.30,10.0,NW,8.1,-,N/A,,Overcast,310,2013-01-18 02:55:00
10:15 PM,20.1,7.5,58,30.30,10.0,NW,6.9,-,N/A,,Overcast,310,2013-01-18 03:15:00
10:35 PM,19.9,7.7,59,30.30,10.0,NW,6.9,-,N/A,,Overcast,310,2013-01-18 03:35:00
10:55 PM,19.8,7.7,60,30.30,10.0,NW,6.9,-,N/A,,Overcast,320,2013-01-18 03:55:00
11:15 PM,19.6,8.2,61,30.30,10.0,NW,6.9,-,N/A,,Overcast,310,2013-01-18 04:15:00
11:35 PM,19.2,8.6,63,30.30,10.0,NW,6.9,-,N/A,,Overcast,320,2013-01-18 04:35:00
11:55 PM,18.9,9.5,67,30.30,10.0,NW,8.1,-,N/A,,Overcast,320,2013-01-18 04:55:00